Regional Weather Roundup
Issued by NWS

Home | Current Version | Previous Version | Graphics & Text | Print | Product List | Glossary On
Versions: 1 2 3 4 5 6 7 8 9 10 11 12 13 14 15 16 17 18 19 20 21 22 23 24 25 26 27 28 29 30 31 32 33 34 35 36 37 38 39 40 41 42 43 44 45 46 47 48 49 50
000
ASUS43 KBIS 231102
RWRND

NORTH DAKOTA REGIONAL WEATHER ROUNDUP
NATIONAL WEATHER SERVICE BISMARCK ND
600 AM CDT MON APR 23 2018

NOTE: "FAIR" INDICATES FEW OR NO CLOUDS BELOW 12,000 FEET WITH NO
SIGNIFICANT WEATHER AND/OR OBSTRUCTIONS TO VISIBILITY.


NDZ001>003-009>011-017-231200-
NORTHWEST NORTH DAKOTA

CITY           SKY/WX    TMP DP  RH WIND       PRES   REMARKS
WILLISTON      MOCLDY    36  31  82 E3        30.24R
MINOT          CLEAR     38  28  67 W5        30.21R
MINOT AFB      CLEAR     32  27  83 NW10      30.19R
$$

NDZ018>021-031>035-040>046-231200-
SOUTHWEST NORTH DAKOTA

CITY           SKY/WX    TMP DP  RH WIND       PRES   REMARKS
BISMARCK       CLEAR     39  36  89 NW6       30.16R
DICKINSON      MOCLDY    40  28  62 NE13      30.15R
GARRISON         N/A     37  29  72 N7        30.18R
HETTINGER ARPT PTCLDY    31  28  89 W3        30.13S
$$

NDZ004>008-012>016-024-026-027-054-231200-
NORTHEAST NORTH DAKOTA

CITY           SKY/WX    TMP DP  RH WIND       PRES   REMARKS
GRAND FORKS    FAIR      35  35 100 SW6       30.14R
GRND FRKS AFB  FAIR      40  37  89 W8        30.14R
DEVILS LAKE    FAIR      34  29  82 N7        30.17R
$$

NDZ022-023-025-028>030-036>039-047>053-231200-
SOUTHEAST NORTH DAKOTA

CITY           SKY/WX    TMP DP  RH WIND       PRES   REMARKS
FARGO          CLOUDY    42  37  82 S8        30.17S
JAMESTOWN      MOCLDY    37  33  85 S5        30.15R
$$





USA.gov is the U.S. government's official web portal to all federal, state and local government web resources and services.